Regional Weather Roundup
Issued by NWS

Home | Current Version | Previous Version | Text Only | Print | Product List | Glossary Off
Versions: 1 2 3 4 5 6 7 8 9 10 11 12 13 14 15 16 17 18 19 20 21 22 23 24 25 26 27 28 29 30 31 32 33 34 35 36 37 38 39 40 41 42 43 44 45 46 47 48 49 50

517
ASUS44 KJAN 261010
RWRMS

MISSISSIPPI HOURLY WEATHER ROUNDUP
NATIONAL WEATHER SERVICE JACKSON MS
400 AM CST MON JAN 26 2015

NOTE: "FAIR: INDICATES FEW OR NO CLOUDS BELOW 12,000 FEET WITH NO
SIGNIFICANT WEATHER AND/OR OBSTRUCTIONS TO VISIBILITY.

MSZ001>002-007>008-010>013-018>021-025>028-034>036-261100-
NORTHWEST MISSISSIPPI

CITY           SKY/WX    TMP DP  RH WIND       PRES   REMARKS
CLARKSDALE     CLOUDY    41  34  75 N10G17    30.07R
CLEVELAND      CLOUDY    43  37  77 N16G24    30.05S
GREENWOOD      CLOUDY    44  34  67 NW13G23   30.04R
GREENVILLE     CLOUDY    45  35  68 NW13      30.06R
GRENADA        CLOUDY    41  34  75 NW16G22   30.03R
OLIVE BRANCH   CLOUDY    37  36  93 NW14G23   30.02R WCI  29
OXFORD         CLOUDY    39  32  75 NW17G25   30.02R WCI  30
TUNICA         CLOUDY    39  32  75 N17       30.06S WCI  30
$$

MSZ003>006-009-014>017-022>024-029>033-037>039-261100-
NORTHEAST MISSISSIPPI

CITY           SKY/WX    TMP DP  RH WIND       PRES   REMARKS
COLUMBUS AFB   CLOUDY    44  36  74 NW13      29.96R
CORINTH        CLOUDY    39  32  75 NW16G30   29.95R WCI  30
GOLDN TRIANGLE CLOUDY    43  36  75 NW12G21   29.95R
STARKVILLE     CLOUDY    43  36  75 NW6G16    29.97R
TUPELO         CLOUDY    42  35  76 N13       29.96R
$$

MSZ040-058-261100-
CENTRAL MISSISSIPPI

CITY           SKY/WX    TMP DP  RH WIND       PRES   REMARKS
JACKSON INTL   CLOUDY    47  34  60 NW7       30.02R
JACKSON HAWKNS CLOUDY    47  34  60 NW10      30.03R
MERIDIAN KEY   CLOUDY    46  34  62 NW12      29.98R
MERIDIAN NAS   CLOUDY    46  34  62 NW12      29.98R
RAYMOND        CLOUDY    46  41  81 MISG      30.04R
VICKSBURG      CLEAR     42  33  70 NW5       30.06F
$$

MSZ059>079-261100-
SOUTH MISSISSIPPI

CITY           SKY/WX    TMP DP  RH WIND       PRES   REMARKS
BROOKHAVEN     FAIR      45  34  65 NW7       30.05R
HATTIESBURG    CLEAR     47  34  60 NW9       30.01S
MCCOMB         CLEAR     46  33  60 NW12      30.03R
NATCHEZ        CLEAR     45  30  57 W5        30.08R
PINE BELT      CLEAR     45  30  57 NW6       30.00F
$$

MSZ080>082-261100-
COASTAL MISSISSIPPI

CITY           SKY/WX    TMP DP  RH WIND       PRES   REMARKS
BILOXI         CLEAR     48  36  64 VRB1      29.99F
PASCAGOULA     CLEAR     47  35  63 NW3       29.99F
GULFPORT       CLEAR     42  37  82 CALM      29.99F
$$



USA.gov is the U.S. government's official web portal to all federal, state and local government web resources and services.